User: anonymous   Login
Location: Fort Wayne
(41.1310°N, 85.1290°W)
Time: 09:23:46
(UTC-04:00)
Language:

Meteor 2-9 Rocket - Orbit

View from above orbital plane
View from above orbital plane
View from above satellite
View from above satellite

Ground track
Ground track

The orbit data is extracted from the following two-line orbital elements,

1 13719U 82116B   14298.16809933  .00000251  00000-0  12145-3 0  5408
2 13719 081.2564 226.6279 0071073 227.5518 240.7768 14.14489012643798
Epoch (UTC): 25 October 2014 04:02:03
Eccentricity: 0.0071073
inclination: 81.2564°
perigee height: 793 km
apogee height: 895 km
right ascension of ascending node: 226.6279°
argument of perigee: 227.5518°
revolutions per day: 14.14489012
mean anomaly at epoch: 240.7768°
orbit number at epoch: 64379

The dashed part of the orbit path shows where the satellite is in the earth's shadow,  

DLR